Pasco, WA
on Sunday, February 24, 2013

Sunday
Previous Day Next Day
Daily Summary
 ActualAverageRecord
Temperature
Mean Temperature °F 40°F  
Max Temperature 48°F 52°F 70°F (1995)
Min Temperature 28°F 29°F 11°F (1993)
Degree Days
Heating Degree Days 27 24  
Month to date heating degree days 620 637  
Since 1 July heating degree days 3531 3788  
Cooling Degree Days 0 0  
Month to date cooling degree days 0 0  
Year to date cooling degree days 0 0  
Moisture
Dew Point 27°F   
Average Humidity 64    
Maximum Humidity 78    
Minimum Humidity 49    
Precipitation
Precipitation 0.00 in in 0.57 in (1994)
Month to date precipitation 0.01  
Year to date precipitation 0.37  
Snow
Snow 0.00 in in in ()
Snow Depth 0.00 in   
Wind
Wind Speed 7 mph   
Max Wind Speed 21 mph   
Max Gust Speed 24 mph   
Visibility 10 miles   
Events     

Key: T is trace of precipitation, MM is missing value
Source: NWS Daily Summary
Time(PST)TemperatureDew PointHumidity Pressure Visibility Wind DirectionWind SpeedGust SpeedPrecipitationEvents Conditions
12:53 AM 28.0°F 21.9°F 78% 30.34 in 10.0 miles SE 4.6 mph - N/A   Clear
1:53 AM 33.1°F 26.1°F 75% 30.35 in 10.0 miles SSW 6.9 mph - N/A   Clear
2:53 AM 33.1°F 26.1°F 75% 30.35 in 10.0 miles South 6.9 mph - N/A   Clear
3:53 AM 30.0°F 25.0°F 82% 30.35 in 10.0 miles South 4.6 mph - N/A   Clear
4:53 AM 30.0°F 24.1°F 79% 30.36 in 10.0 miles South 8.1 mph - N/A   Clear
5:53 AM 32.0°F 26.1°F 79% 30.36 in 10.0 miles SSW 3.5 mph - N/A   Clear
6:53 AM 34.0°F 27.0°F 75% 30.36 in 10.0 miles Calm Calm - N/A   Clear
7:53 AM 37.0°F 27.0°F 67% 30.36 in 10.0 miles Calm Calm - N/A   Clear
8:53 AM 39.9°F 27.0°F 60% 30.36 in 10.0 miles SW 10.4 mph 16.1 mph N/A   Overcast
9:53 AM 42.1°F 28.0°F 58% 30.36 in 10.0 miles SW 13.8 mph 19.6 mph N/A   Overcast
10:53 AM 44.1°F 28.0°F 53% 30.35 in 10.0 miles SW 17.3 mph - N/A   Overcast
11:53 AM 48.0°F 30.0°F 50% 30.35 in 10.0 miles WSW 17.3 mph 23.0 mph N/A   Clear
12:53 PM 46.9°F 30.0°F 52% 30.33 in 10.0 miles SW 15.0 mph - N/A   Partly Cloudy
1:53 PM 46.9°F 30.0°F 52% 30.30 in 10.0 miles SW 12.7 mph - N/A   Clear
2:53 PM 46.9°F 30.0°F 52% 30.28 in 10.0 miles SW 11.5 mph - N/A   Clear
3:53 PM 46.9°F 28.9°F 50% 30.27 in 10.0 miles SW 12.7 mph - N/A   Clear
4:53 PM 46.9°F 28.9°F 50% 30.24 in 10.0 miles South 10.4 mph - N/A   Mostly Cloudy
5:53 PM 43.0°F 28.9°F 58% 30.22 in 10.0 miles South 3.5 mph - N/A   Scattered Clouds
6:53 PM 37.9°F 28.0°F 68% 30.20 in 10.0 miles SE 6.9 mph - N/A   Clear
7:53 PM 37.0°F 28.9°F 73% 30.18 in 10.0 miles SE 5.8 mph - N/A   Clear
8:53 PM 33.1°F 27.0°F 78% 30.15 in 10.0 miles Calm Calm - N/A   Clear
9:53 PM 34.0°F 27.0°F 75% 30.12 in 10.0 miles ESE 3.5 mph - N/A   Clear
10:53 PM 34.0°F 27.0°F 75% 30.09 in 10.0 miles Calm Calm - N/A   Partly Cloudy
11:53 PM 33.1°F 27.0°F 78% 30.06 in 10.0 miles Calm Calm - N/A   Clear
Moon Phase
Feb. 24 Feb. 25 Mar. 04 Mar. 11 Mar. 19
Sunrise:06:43 AM (PST) Moon Rise:04:52 PM (PST)
Sunset:05:36 PM (PST) Moon Set:05:45 AM (PST)

Copyright © 2014 The Weather Underground, Inc.